RO10 KLAS-KPDX

Flight info

Callsign RO10
Flight time N/A
Altitude 34000
Route JOHKR5 KENNO OAL YERIN MOXEE TMBRS4
Aircraft A320/M-SDE3FGHIRWY/LB1

Departure

Time 2026-05-03 23:33
Airport Harry Reid International Airport (KLAS)

Arrival

Time N/A
Airport Portland International Airport (KPDX)
Time Latitude Longitude Altitude Speed Heading
2026-05-03 23:25 36.07827 -115.12358 2118 ft 0 kts 89°
2026-05-03 23:26 36.07827 -115.12357 2118 ft 1 kts 89°
2026-05-03 23:26 36.07826 -115.12302 2118 ft 8 kts 98°
2026-05-03 23:26 36.07813 -115.12261 2120 ft 0 kts 118°
2026-05-03 23:28 36.07805 -115.12244 2119 ft 9 kts 118°
2026-05-03 23:28 36.07783 -115.12200 2119 ft 0 kts 125°
2026-05-03 23:28 36.07782 -115.12198 2119 ft 2 kts 125°
2026-05-03 23:29 36.07777 -115.12190 2120 ft 0 kts 127°
2026-05-03 23:29 36.07775 -115.12187 2120 ft 0 kts 129°
2026-05-03 23:30 36.07763 -115.12171 2120 ft 6 kts 130°
2026-05-03 23:30 36.07751 -115.12155 2121 ft 4 kts 139°
2026-05-03 23:30 36.07723 -115.12136 2125 ft 0 kts 159°
2026-05-03 23:31 36.07677 -115.12123 2126 ft 16 kts 184°
2026-05-03 23:31 36.07646 -115.12174 2125 ft 0 kts 264°
2026-05-03 23:31 36.07645 -115.12232 2124 ft 30 kts 269°
2026-05-03 23:32 36.07635 -115.12793 2122 ft 97 kts 270°
2026-05-03 23:32 36.07631 -115.13848 2123 ft 147 kts 269°
2026-05-03 23:32 36.07629 -115.15281 2124 ft 185 kts 268°
2026-05-03 23:32 36.07691 -115.16916 2628 ft 190 kts 266°
2026-05-03 23:33 36.07772 -115.18543 3234 ft 188 kts 263°
2026-05-03 23:33 36.07761 -115.20168 3625 ft 195 kts 263°
2026-05-03 23:33 36.07531 -115.21901 3783 ft 215 kts 250°
2026-05-03 23:33 36.07187 -115.23803 4081 ft 235 kts 251°
2026-05-03 23:34 36.06516 -115.25622 4657 ft 233 kts 224°
2026-05-03 23:34 36.05155 -115.26749 5050 ft 248 kts 200°
2026-05-03 23:34 36.03511 -115.27513 5659 ft 255 kts 199°
2026-05-03 23:34 36.01838 -115.28257 6377 ft 257 kts 199°
2026-05-03 23:35 36.00142 -115.29012 7074 ft 261 kts 199°
2026-05-03 23:35 35.98461 -115.29899 7719 ft 265 kts 205°